Probability
4 2 3 5 6 9 12 16 22 34 60 86 96 95 92 87 85 83 79 69 52 45 61 80 75 51 45 59 53 25 6 1 1 2 1 0 0 0 0 0 0 0 0
3 2 4 6 6 6 7 9 13 25 51 79 93 91 83 75 72 73 72 62 44 38 53 74 81 66 49 46 38 18 5 1 1 1 1 0 0 0 0 0 0 0 0
2 1 2 3 3 4 4 5 7 14 31 54 68 65 54 45 45 52 56 49 31 24 33 50 63 58 37 25 17 7 2 0 0 0 0 0 0 0 0 0 0 0 0
1 0 0 0 0 3 8 10 10 11 14 21 27 24 18 15 17 27 35 31 17 9 11 17 24 23 15 8 5 1 0 0 0 0 0 0 0 1 0 0 0 0 0
0 0 0 0 0 3 9 13 15 13 8 5 4 3 2 2 3 10 15 15 8 3 1 1 2 2 2 1 1 0 0 0 0 0 0 0 0 0 0 0 0 0 0
0 0 0 0 0 1 4 7 10 10 7 3 2 2 3 3 3 5 7 6 5 4 3 2 1 1 0 0 0 0 0 0 0 0 0 0 0 0 0 0 0 0 0
0 0 0 0 0 0 0 0 2 3 2 1 1 1 4 7 7 5 3 3 3 5 5 2 1 1 0 0 0 0 0 0 0 0 0 0 0 0 0 0 0 0 0
0 0 0 0 0 0 1 3 4 2 0 0 1 1 6 12 11 5 1 1 1 3 3 1 0 0 0 0 0 0 0 0 0 0 0 0 0 0 0 0 0 0 0
0 0 0 0 0 0 2 7 9 4 0 0 3 7 11 13 9 3 0 0 0 0 0 0 0 0 0 0 0 0 0 0 0 0 0 0 0 0 0 0 0 0 0
0 0 0 0 0 0 2 6 6 2 0 0 3 10 14 10 4 1 0 0 0 0 0 0 0 0 0 0 0 0 0 0 0 0 0 0 0 0 0 0 0 0 0
0 0 0 0 0 0 2 2 1 0 0 0 2 6 7 4 1 0 0 0 0 0 0 0 0 0 0 0 0 0 0 0 0 0 0 0 0 0 0 0 0 0 0
0 0 0 0 0 0 1 1 0 0 0 0 0 0 1 1 0 0 0 0 0 0 0 0 0 0 0 0 0 0 0 0 0 0 0 0 0 0 0 0 0 0 0
0 0 0 0 0 0 0 0 0 0 0 0 0 0 0 0 0 0 0 0 0 0 0 0 0 0 0 0 0 0 0 0 0 0 0 0 0 0 0 0 0 0 0
0 0 0 0 0 0 0 0 0 0 0 0 0 0 0 0 0 0 0 0 0 0 0 0 0 0 0 0 0 0 0 0 0 0 0 0 0 0 0 0 0 0 0
0 0 0 0 0 0 0 0 0 0 0 0 0 0 0 0 0 0 0 0 0 0 0 0 0 0 0 0 0 0 0 0 0 0 0 0 0 0 0 0 0 0 0
0 0 0 0 0 0 0 0 0 0 0 0 0 0 0 1 0 0 0 0 0 0 0 0 0 0 0 0 0 0 0 0 0 0 0 0 0 0 0 0 0 0 0
0 0 0 0 0 0 0 0 0 0 0 0 0 0 0 0 0 0 0 0 0 0 0 0 0 0 0 0 0 0 0 0 0 0 0 0 0 0 0 0 0 0 0
0 0 0 0 0 0 0 0 0 0 0 0 0 0 0 0 0 0 0 0 0 0 0 0 0 0 0 0 0 0 0 0 0 0 0 0 0 0 0 0 0 0 0
0 0 0 0 0 0 0 0 0 0 0 0 0 0 0 0 0 0 0 0 0 0 0 0 0 0 0 0 0 0 0 0 0 0 0 0 0 0 0 0 0 0 0
0 0 0 0 0 0 0 0 0 0 0 0 0 0 0 0 0 0 0 0 0 0 0 0 0 0 0 0 0 0 0 0 0 0 0 0 0 0 0 0 0 0 0
0 0 0 0 0 0 0 0 0 0 0 0 0 0 0 0 0 0 0 0 0 0 0 0 0 0 0 0 0 0 0 0 0 0 0 0 0 0 0 0 0 0 0
0 0 0 0 0 0 0 0 0 0 0 0 0 0 0 0 0 0 0 0 0 0 0 0 0 0 0 0 0 0 0 0 0 0 0 0 0 0 0 0 0 0 0
0 0 0 0 0 0 0 0 0 0 0 0 0 0 0 0 0 0 0 0 0 0 0 0 0 0 0 0 0 0 0 0 0 0 0 0 0 0 0 0 0 0 0
0 0 0 0 0 0 0 0 0 0 0 0 0 0 0 0 0 0 0 0 0 0 0 0 0 0 0 0 0 0 0 0 0 0 0 0 0 0 0 0 0 0 0
0 0 0 0 0 0 0 0 0 0 0 0 0 0 0 0 0 0 0 0 0 0 0 0 0 0 0 0 0 0 0 0 0 0 0 0 0 0 0 0 0 0 0
0 0 0 0 0 0 0 0 0 0 0 0 0 0 0 0 0 0 0 0 0 0 0 0 0 0 0 0 0 0 0 0 0 0 0 0 0 0 0 0 0 0 0
Wind_Speed
6 7 8 10 10 10 9 9 8 10 9 6 6 6 6 6 6 7 7 5 3 4 4 5 7 9 10 9 8 8 10 9 7 9 11 12 12 12 11 11 11 12 13
7 7 6 6 8 9 10 10 9 7 5 2 3 3 3 2 8 9 8 7 4 4 6 7 5 4 7 9 8 8 9 9 7 8 10 11 11 11 8 9 9 11 10
3 4 6 8 9 10 11 10 10 8 5 3 2 3 1 2 9 12 11 9 5 3 5 9 9 6 6 6 6 7 9 9 8 5 7 8 8 6 6 8 8 8 8
2 3 5 8 9 9 9 8 9 8 6 5 5 10 11 13 13 9 5 6 11 11 7 1 5 1 4 5 5 5 7 7 7 6 7 10 9 6 8 7 8 6 7
2 5 7 9 12 13 12 11 11 11 9 7 11 13 14 13 7 5 6 4 6 10 8 6 6 6 5 4 6 4 5 5 6 5 6 7 7 8 7 8 9 6 7
3 5 6 8 10 11 12 13 14 14 12 12 15 16 14 10 7 8 7 5 5 6 7 7 7 6 5 5 6 4 7 7 6 6 5 5 5 6 6 7 8 9 7
7 8 8 8 10 12 13 13 14 14 13 12 12 14 14 13 13 10 8 5 4 4 6 8 7 6 5 5 5 6 8 6 6 7 6 3 5 5 6 5 5 7 6
9 9 9 8 9 12 13 13 14 13 12 11 11 11 14 13 12 10 6 5 3 3 4 5 7 7 7 6 5 5 4 4 5 6 5 3 3 2 3 2 3 7 5
10 10 9 9 10 11 11 11 11 10 11 12 12 10 10 11 9 8 7 5 4 6 5 3 4 5 4 5 5 3 4 4 4 4 3 3 2 2 3 2 4 5 6
9 9 9 10 9 7 6 6 7 9 10 14 13 6 5 4 5 8 8 8 6 4 4 4 4 4 3 2 4 3 3 4 1 2 2 1 2 3 4 4 4 5 4
9 8 8 9 6 2 4 3 6 8 12 13 13 7 4 4 2 2 4 5 5 5 5 5 4 4 5 5 4 4 3 2 1 2 2 2 2 2 3 3 3 3 4
8 8 8 7 5 3 2 2 3 2 6 10 11 7 6 4 3 6 5 6 6 5 5 5 4 4 5 5 5 5 5 4 3 3 2 3 3 2 3 4 4 5 5
8 8 7 6 6 5 5 5 2 1 2 5 7 7 6 1 3 6 7 6 6 5 5 5 5 5 5 5 5 6 6 6 6 5 5 4 3 5 5 6 5 5 3
9 8 7 6 6 4 5 6 4 3 1 3 6 8 7 6 5 3 6 6 7 7 7 7 7 7 6 6 7 7 7 6 6 5 5 5 5 7 6 5 5 6 5
10 9 8 7 6 5 5 5 2 1 1 4 10 10 8 7 8 8 8 8 8 8 8 8 8 8 7 7 7 7 7 7 8 7 7 7 6 6 7 7 8 8 8
10 10 8 8 8 8 7 6 2 3 2 5 9 9 10 10 10 8 8 10 9 7 9 9 9 8 7 7 8 6 7 8 8 8 7 7 5 7 8 7 7 8 8
9 9 9 8 8 8 7 6 3 2 1 5 9 7 8 11 9 7 9 10 9 7 7 8 9 9 7 6 7 4 7 8 8 7 7 8 9 7 7 4 3 4 3
8 8 8 8 8 8 8 6 5 3 4 7 8 7 9 14 10 6 6 7 7 6 6 7 8 9 6 3 5 5 8 8 8 7 7 7 9 10 9 7 7 6 6
6 8 8 8 8 8 8 7 8 5 3 4 5 5 10 13 14 12 8 6 5 5 4 6 8 9 7 3 3 4 7 7 7 7 7 7 9 12 14 8 6 6 7
6 8 8 8 8 8 8 8 9 8 7 6 5 5 7 10 13 14 12 9 8 6 4 6 8 9 8 3 4 6 4 6 6 6 7 9 9 11 13 10 8 8 8
9 9 9 9 9 8 8 9 10 9 9 7 7 6 6 8 10 12 11 10 8 7 6 6 7 7 6 4 2 7 3 5 4 5 5 7 8 9 10 9 8 7 8
11 12 11 11 10 10 10 10 10 9 8 8 8 7 7 7 9 10 10 11 10 10 8 8 8 8 7 5 3 4 5 3 3 3 5 6 5 5 7 7 8 11 9
14 13 13 12 11 11 11 11 10 9 9 10 9 8 8 7 8 9 9 10 10 10 10 8 6 5 7 6 6 6 4 4 3 5 6 3 2 5 4 3 6 7 8
15 14 15 15 14 13 13 12 11 11 12 11 11 10 8 7 7 7 8 8 10 11 11 10 8 6 6 8 7 6 5 4 5 7 5 1 2 2 2 2 2 6 6
13 15 16 17 16 14 14 13 12 12 13 12 11 10 9 8 7 5 4 5 4 5 9 9 8 7 7 6 7 5 3 2 2 3 7 7 4 3 3 4 4 6 6
14 15 17 18 17 16 15 14 13 12 12 11 10 10 9 9 8 7 6 8 6 8 8 3 3 7 9 13 10 8 6 3 1 4 4 3 2 2 3 3 4 6 6
Wind_Direction
152 157 168 175 177 187 188 187 191 182 179 186 230 233 234 249 249 217 208 212 222 213 185 205 245 269 265 268 278 274 269 271 284 287 280 275 269 258 259 258 260 261 261
188 194 214 247 263 269 272 282 289 295 274 220 219 217 172 215 251 244 221 205 218 252 224 170 173 226 259 260 261 271 279 279 269 274 295 281 270 248 235 252 261 269 274
249 256 264 273 273 274 281 290 295 305 313 327 340 319 97 176 243 239 227 211 188 236 255 220 139 169 233 250 256 266 275 283 281 270 268 282 287 323 263 249 250 261 272
82 5 326 316 313 313 308 305 303 294 272 248 225 235 238 239 242 243 224 208 184 167 131 52 81 170 257 264 267 262 281 283 284 270 252 261 280 282 287 266 258 240 253
315 320 317 316 317 318 317 315 311 306 298 272 254 252 251 252 243 234 213 200 207 196 172 171 192 190 217 243 257 267 272 282 286 289 280 281 275 261 251 274 279 258 244
297 302 300 298 301 303 304 306 305 303 298 278 262 253 250 250 213 194 197 190 189 182 191 198 202 194 194 222 243 253 256 261 278 289 283 270 259 256 252 263 284 292 294
295 297 301 305 304 303 298 290 287 288 288 276 259 247 236 217 214 214 213 197 193 186 189 198 189 188 187 205 238 240 250 256 267 275 276 272 260 275 288 292 296 293 301
280 285 297 304 304 304 300 294 284 285 295 293 273 260 246 233 230 218 199 191 187 124 150 199 183 183 188 199 219 235 245 250 251 253 272 277 268 293 285 302 302 297 293
295 291 294 294 297 304 314 329 324 322 314 314 307 279 248 231 210 189 174 171 152 124 125 165 172 164 182 199 207 221 222 234 252 263 269 292 313 265 277 266 270 301 306
287 288 292 290 297 309 356 37 56 36 11 355 338 279 193 162 179 185 180 141 138 137 149 133 109 102 119 179 226 203 200 218 266 9 35 49 320 315 318 325 317 294 299
298 296 290 289 277 271 94 130 80 61 42 21 22 35 90 107 91 233 161 131 150 164 156 133 137 155 156 157 174 182 170 169 96 60 45 37 331 6 331 316 308 275 286
288 289 289 275 229 216 219 199 143 73 62 48 27 47 58 59 194 190 180 167 170 175 169 159 163 167 148 138 154 155 125 107 86 61 54 37 34 11 8 349 354 346 333
278 289 282 247 219 238 275 256 220 140 72 73 77 73 83 55 254 172 174 159 149 148 140 139 133 127 119 124 108 91 80 72 69 69 67 52 37 27 21 14 360 8 5
280 286 271 238 238 256 286 281 239 163 82 110 148 146 164 190 217 147 123 129 138 129 126 124 122 119 116 103 95 88 80 78 85 91 92 75 42 24 358 17 21 24 36
277 279 265 243 239 247 259 269 308 322 251 166 170 182 181 186 147 137 144 145 139 134 136 133 128 119 108 89 88 89 87 91 93 87 77 64 60 44 5 11 23 15 22
278 275 265 252 247 246 245 248 260 306 278 172 170 184 169 143 122 128 140 140 136 138 139 133 119 102 86 71 77 87 92 89 91 94 93 91 88 82 67 49 42 31 22
282 268 262 256 250 252 244 235 214 211 130 131 138 166 153 116 108 122 130 131 120 126 136 131 120 112 113 107 94 82 90 88 84 78 67 63 49 32 72 116 126 80 57
284 267 258 249 246 250 246 227 222 207 152 133 120 134 136 111 108 93 100 114 111 116 131 135 128 121 111 97 106 112 105 97 89 81 72 61 50 17 354 35 42 34 40
271 260 252 239 240 245 241 236 232 209 175 136 121 147 151 142 144 149 154 145 132 125 137 139 135 130 136 171 226 220 132 119 106 81 53 46 50 7 349 4 12 14 5
218 240 237 229 228 234 238 237 240 226 217 184 170 171 153 153 157 161 162 162 160 150 170 150 133 133 143 179 283 276 149 146 147 129 105 68 40 16 4 5 9 7 355
206 214 221 218 221 220 228 238 246 238 228 195 171 174 161 145 145 155 161 161 165 157 163 131 128 125 124 134 310 309 273 150 161 136 120 85 46 26 11 8 13 343 313
218 203 211 212 213 213 218 232 237 238 225 188 182 178 171 163 155 161 161 161 166 166 162 149 142 124 110 96 83 50 47 41 120 115 95 88 63 47 33 18 348 321 321
226 206 208 211 208 208 214 222 217 209 208 193 186 182 175 166 160 165 166 163 173 173 167 150 132 135 132 113 92 85 70 38 42 74 76 94 191 190 121 47 335 348 5
228 212 204 210 207 205 207 215 207 193 204 198 191 184 180 166 169 174 179 185 178 176 168 153 158 167 159 151 155 155 157 171 162 151 145 128 106 129 141 162 25 40 24
242 219 208 208 206 200 204 207 206 194 200 198 190 191 184 175 180 185 146 195 189 171 163 156 160 164 172 129 87 92 135 127 83 190 171 182 179 136 96 69 54 42 19
258 228 218 210 201 196 200 200 198 197 204 202 199 200 205 185 188 171 130 60 63 93 111 162 164 124 114 111 101 92 84 80 274 226 182 156 125 69 54 36 41 50 34